Preview of NWS' New Version of Forecast
This preview is not operational and should not be used for support decisions.

Regional Weather Roundup (RWR)

Issued by National Weather Service (NWS)

                            
000
ASUS45 KABQ 222001
RWRNM 
NEW MEXICO REGIONAL WEATHER ROUNDUP
NATIONAL WEATHER SERVICE ALBUQUERQUE NM
200 PM MDT MON JUL 22 2019

NOTE: "FAIR" MEANS FEW OR NO CLOUDS BELOW 12,000 FEET AGL WITH NO
       SIGNIFICANT WEATHER OR OBSTRUCTIONS TO VISION.

      THIS PRODUCT IS RELEASED AS TWO VERSIONS.  ONE VERSION NEAR
      THE TOP OF THE HOUR CONTAINING PRELIMINARY DATA FROM ALBUQUERQUE
      AND OTHER STATIONS.  A FINAL VERSION WITH ADDITIONAL DATA IS 
      ISSUED ABOUT 10 MINUTES AFTER THE HOUR.
 
NMZ501-503-504-510>518-222100-
NORTHWEST PLATEAU/NORTHCENTRAL MOUNTAINS
  
CITY           SKY/WX    TMP DP  RH WIND       PRES   REMARKS
FARMINGTON     FAIR      92  43  18 SW7       30.24F                  
LOS ALAMOS       N/A     81  43  26 S9        30.44F                  
SANTA FE       FAIR      84  46  26 S12G23    30.38S                  
ANGEL FIRE       N/A     73  47  39 SE9G26    30.53F                  

$$
NMZ402-403-502-505>509-222100-
WESTCENTRAL MOUNTAINS/SOUTHWEST MOUNTAINS
  
CITY           SKY/WX    TMP DP  RH WIND       PRES   REMARKS
GALLUP         FAIR      92  42  17 NE7       30.32F                  
GRANTS         FAIR      86  45  23 SE17G28   30.38S                  
SILVER CITY    FAIR      87  51  28 SE15G24   30.29F                  

$$
NMZ407-409-411-412-222100-
SOUTHERN DESERTS
  
CITY           SKY/WX    TMP DP  RH WIND       PRES   REMARKS
DEMING         FAIR      92  53  26 E14G21    30.21F                  
LAS CRUCES     FAIR      89  53  29 SE21G30   30.24F                  
ALAMOGORDO     PTSUNNY   90  48  24 SE3       30.20F                  
T OR C         FAIR      93  49  22 VRB6      30.23F                  

$$
NMZ519>523-222100-
CENTRAL VALLEYS/CENTRAL HIGHLANDS
  
CITY           SKY/WX    TMP DP  RH WIND       PRES   REMARKS
ALBUQUERQUE    PTSUNNY   87  53  31 E14       30.31F                  
DOUBLE EAGLE   PTSUNNY   84  50  30 S8        30.35F                  
MORIARTY ARPT  FAIR      84  50  31 SE10G18   30.42S                  
CLINES CORNERS FAIR      75  53  46 E12G20    30.48                   
BELEN          FAIR      87  47  24 S16       30.30F                  
SOCORRO        FAIR      88  48  25 SE6       30.28F                  

$$
NMZ524>526-539-540-222100-
SOUTHCENTRAL MOUNTAINS
  
CITY           SKY/WX    TMP DP  RH WIND       PRES   REMARKS
RUIDOSO          N/A     70  55  60 SE17G23   30.49S                  

$$
NMZ527>531-222100-
NORTHEAST HIGHLANDS/NORTHEAST PLAINS
  
CITY           SKY/WX    TMP DP  RH WIND       PRES   REMARKS
LAS VEGAS      PTSUNNY   75  51  43 S10       30.46F                  
RATON          FAIR      80  47  31 VRB3      30.40F                  
CLAYTON        CLOUDY    78  57  48 NE13      30.37F                  

$$
NMZ532>537-222100-
EASTCENTRAL PLAINS
  
CITY           SKY/WX    TMP DP  RH WIND       PRES   REMARKS
SANTA ROSA     MOCLDY    84  60  43 SE14G20   30.36S                  
TUCUMCARI      PTSUNNY   77  63  61 N3        30.31F                  
CANNON AFB     CLOUDY    74  60  59 NE15      30.34F                  
CLOVIS AIRPORT FAIR      79  58  48 NE13      30.33S                  

$$
NMZ028-029-538-222100-
SOUTHEAST PLAINS
  
CITY           SKY/WX    TMP DP  RH WIND       PRES   REMARKS
ROSWELL        CLOUDY    79  65  62 N10       30.28S                  
ARTESIA        FAIR      82  66  57 N12G18    30.27S                  
CARLSBAD       FAIR      88  63  43 N20       30.18F                  
HOBBS          PTSUNNY   90  61  37 NE18G24   30.22F                  


$$